Weather History for Las Vegas, NM

Change the Weather History Date:

Sunday, December 8, 2013

  Actual Average Record
Temperature  
Mean Temperature 21 °F -  
Max Temperature 28 °F 47 °F 69 °F (1958)
Min Temperature 14 °F 20 °F -6 °F (1951)
Degree Days  
Heating Degree Days 44    
Moisture  
Dew Point 12 °F    
Average Humidity 68    
Maximum Humidity 89    
Minimum Humidity 41    
Precipitation  
Precipitation 0.00 in - - ()
Sea Level Pressure  
Sea Level Pressure 29.80 in    
Wind  
Wind Speed 20 mph (SW)    
Max Wind Speed 39 mph    
Max Gust Speed 55 mph    
Visibility 7 miles    
Events Fog , Snow    
Averages and records for this station are not official NWS values.
T = Trace of Precipitation, MM = Missing Value Source: NWS Daily Summary

Daily Weather History Graph

Daily Weather History Graph

Search for Another Location

Airport:

Trip Planner

Search our weather history database for the weather conditions in past years. The results will help you decide how hot, cold, wet, or windy it might be!

Date:

Astronomy

Dec. 08, 2013 Rise Set
Actual Time 6:58 AM MST 4:47 PM MST
Civil Twilight 6:29 AM MST 5:15 PM MST
Nautical Twilight 5:57 AM MST 5:47 PM MST
Astronomical Twilight 5:26 AM MST 6:18 PM MST
Moon 11:29 AM MST (12/8) 11:28 PM MST (12/8)
Length of Visible Light 10h 45m
Length of Day
9h 49m
Waxing Crescent, 40% of the Moon is Illuminated
Dec 8
Waxing Crescent
Dec 9
First Quarter
Dec 17
Full
Dec 25
Last Quarter
Jan 1
New

Hourly Weather History & Observations

Time (MST) Temp. Windchill Dew Point Humidity Pressure Visibility Wind Dir Wind Speed Gust Speed Precip Events Conditions
12:53 AM 15.1 °F 1.1 °F 12.0 °F 88% 29.86 in 0.5 mi South 12.7 mph 21.9 mph N/A Fog Light Freezing Fog
1:26 AM 14.0 °F -0.8 °F 10.9 °F 88% 29.71 in 2.0 mi SSW 13.8 mph - N/A   Mostly Cloudy
1:31 AM 16.0 °F 0.1 °F 12.9 °F 88% 29.71 in 6.0 mi SW 17.3 mph 21.9 mph N/A   Scattered Clouds
1:53 AM 18.0 °F 2.2 °F 15.1 °F 88% 29.79 in 9.0 mi SW 18.4 mph 28.8 mph 0.00 in Snow Light Snow
2:53 AM 23.0 °F 6.0 °F 18.0 °F 81% 29.75 in 9.0 mi WSW 27.6 mph 34.5 mph 0.00 in Snow Light Snow
3:34 AM 19.0 °F 4.0 °F 15.1 °F 85% 29.69 in 10.0 mi South 17.3 mph - 0.00 in Snow Light Snow
3:53 AM 21.0 °F 6.6 °F 18.0 °F 88% 29.78 in 8.0 mi SSW 17.3 mph - 0.00 in Snow Light Snow
4:29 AM 21.9 °F 6.2 °F 19.0 °F 89% 29.67 in 4.0 mi SSW 21.9 mph - 0.00 in Snow Light Snow
4:53 AM 23.0 °F 7.2 °F 19.0 °F 85% 29.74 in 4.0 mi SSW 23.0 mph - 0.00 in Snow Light Snow
5:06 AM 23.0 °F 8.3 °F 19.0 °F 85% 29.66 in 5.0 mi SSW 19.6 mph - 0.00 in Snow Light Snow
5:53 AM 23.0 °F 7.6 °F 19.0 °F 85% 29.72 in 7.0 mi SSW 21.9 mph - 0.00 in Snow Light Snow
6:53 AM 23.0 °F 7.2 °F 19.0 °F 85% 29.73 in 9.0 mi South 23.0 mph - 0.00 in   Overcast
7:53 AM - - - N/A% 29.69 in - North - - 0.00 in   Unknown
8:53 AM - - - N/A% 29.74 in - North - - N/A   Unknown
9:53 AM 28.0 °F 12.8 °F 15.1 °F 58% 29.81 in - West 27.6 mph 35.7 mph N/A   Unknown
10:53 AM 28.0 °F 13.3 °F 12.0 °F 51% 29.82 in 10.0 mi West 25.3 mph 35.7 mph 0.00 in   Overcast
11:53 AM 28.0 °F 13.9 °F 14.0 °F 56% 29.82 in 9.0 mi West 23.0 mph 41.4 mph 0.00 in   Partly Cloudy
12:53 PM 27.0 °F 9.8 °F 12.9 °F 56% 29.83 in 4.0 mi West 34.5 mph 49.5 mph 0.00 in   Partly Cloudy
1:21 PM 26.1 °F 7.7 °F 12.0 °F 55% 29.74 in 2.5 mi West 39.1 mph 50.6 mph 0.00 in   Clear
1:35 PM 26.1 °F 8.4 °F 10.9 °F 53% 29.74 in 3.0 mi West 35.7 mph 48.3 mph 0.00 in   Clear
1:53 PM 26.1 °F 8.6 °F 10.0 °F 51% 29.81 in 4.0 mi West 34.5 mph 55.2 mph 0.00 in   Clear
2:53 PM 27.0 °F 11.0 °F 6.1 °F 41% 29.80 in 9.0 mi West 28.8 mph 42.6 mph 0.00 in   Clear
3:53 PM 25.0 °F 7.1 °F 6.1 °F 45% 29.83 in 9.0 mi West 34.5 mph 39.1 mph N/A   Clear
4:53 PM 21.9 °F 7.3 °F 7.0 °F 53% 29.87 in 10.0 mi WSW 18.4 mph - N/A   Clear
5:53 PM 19.0 °F 5.0 °F 6.1 °F 57% 29.92 in 10.0 mi WSW 15.0 mph - N/A   Clear
6:53 PM 19.9 °F 3.9 °F 3.0 °F 48% 29.94 in 10.0 mi SW 20.7 mph - N/A   Clear
7:53 PM 19.9 °F 6.2 °F 6.1 °F 55% 29.93 in 10.0 mi WSW 15.0 mph - N/A   Clear
8:53 PM 15.1 °F 1.1 °F 6.1 °F 68% 29.90 in 10.0 mi South 12.7 mph - N/A   Clear
9:53 PM 19.9 °F 6.7 °F 9.0 °F 62% 29.94 in 10.0 mi SSW 13.8 mph - N/A   Partly Cloudy
10:53 PM 21.9 °F 9.2 °F 12.0 °F 66% 29.92 in 10.0 mi SSW 13.8 mph - N/A   Overcast
11:53 PM 21.0 °F 7.6 °F 12.0 °F 68% 29.93 in 10.0 mi SSW 15.0 mph - N/A   Overcast